Redmond, OR

10:35 AM PST on November 14, 2019 (GMT -0800)
Roberts Field Airport

Weather History for KRDM - September, 2019

Change the Weather History Date:

Monday, September 23, 2019

  Actual Average Record
Temperature  
Mean Temperature 57 °F 55 °F  
Max Temperature 73 °F 74 °F 94 °F (2011)
Min Temperature 41 °F 36 °F 23 °F (2008)
Degree Days  
Heating Degree Days 8 10  
Month to date heating degree days 118 170  
Since 1 July heating degree days 165 319  
Cooling Degree Days 0 0  
Month to date cooling degree days 37 14  
Year to date cooling degree days 293 220  
Growing Degree Days 8 (Base 50)    
Moisture  
Dew Point 42 °F    
Average Humidity 58    
Maximum Humidity 93    
Minimum Humidity 22    
Precipitation  
Precipitation 0.00 in 0.01 in 0.16 in (1986)
Month to date precipitation 1.31 0.31  
Year to date precipitation 8.77 6.04  
Sea Level Pressure  
Sea Level Pressure 30.17 in    
Wind  
Wind Speed 4 mph (WSW)    
Max Wind Speed 13 mph    
Max Gust Speed 17 mph    
Visibility 10 miles    
Events      
T = Trace of Precipitation, MM = Missing Value Source: NWS Daily Summary

Daily Weather History Graph

Daily Weather History Graph

Search for Another Location

Airport or City:

Astronomy

Sep. 23, 2019 Rise Set
Actual Time 6:52 AM PDT 7:00 PM PDT
Civil Twilight 6:23 AM PDT 7:29 PM PDT
Nautical Twilight 5:49 AM PDT 8:03 PM PDT
Astronomical Twilight 5:15 AM PDT 8:37 PM PDT
Moon 12:26 AM PDT (9/23) 4:12 PM PDT (9/23)
Length of Visible Light 13h 05m
Length of Day
12h 07m
Waning Crescent, 32% of the Moon is Illuminated
Sep 23
Waning Crescent
Sep 28
New
Oct 5
First Quarter
Oct 13
Full
Oct 21
Last Quarter

Hourly Weather History & Observations

Time (PDT) Temp. Windchill Dew Point Humidity Pressure Visibility Wind Dir Wind Speed Gust Speed Precip Events Conditions
12:56 AM 48.9 °F - 46.0 °F 90% 30.04 in 10.0 mi Calm Calm - N/A   Overcast
1:56 AM 51.1 °F - 46.9 °F 86% 30.07 in 10.0 mi Calm Calm - N/A   Overcast
2:56 AM 48.9 °F - 45.0 °F 86% 30.06 in 10.0 mi SSE 3.5 mph - N/A   Overcast
3:56 AM 45.0 °F - 41.0 °F 86% 30.08 in 10.0 mi Calm Calm - N/A   Clear
4:56 AM 43.0 °F - 39.9 °F 89% 30.11 in 10.0 mi Calm Calm - N/A   Scattered Clouds
5:56 AM 44.1 °F 42.5 °F 42.1 °F 93% 30.13 in 10.0 mi NNW 3.5 mph - N/A   Overcast
6:59 AM 45.0 °F - 42.1 °F 90% 30.16 in 10.0 mi Calm Calm - N/A   Scattered Clouds
7:56 AM 48.0 °F - 45.0 °F 89% 30.18 in 10.0 mi Calm Calm - N/A   Scattered Clouds
8:56 AM 54.0 °F - 46.9 °F 77% 30.21 in 10.0 mi South 4.6 mph - N/A   Scattered Clouds
8:58 AM 53.1 °F - 46.0 °F 77% 30.21 in 10.0 mi South 4.6 mph - N/A   Clear
9:56 AM 57.0 °F - 46.0 °F 67% 30.21 in 10.0 mi SSE 6.9 mph - N/A   Clear
10:56 AM 61.0 °F - 46.0 °F 58% 30.21 in 10.0 mi Variable 6.9 mph - N/A   Clear
11:56 AM 64.0 °F - 44.1 °F 48% 30.20 in 10.0 mi SSW 3.5 mph - N/A   Clear
12:56 PM 64.9 °F - 41.0 °F 42% 30.20 in 10.0 mi NNW 3.5 mph - N/A   Clear
1:56 PM 66.9 °F - 39.0 °F 36% 30.19 in 10.0 mi Variable 3.5 mph - N/A   Clear
2:56 PM 70.0 °F - 35.1 °F 28% 30.17 in 10.0 mi Variable 3.5 mph - N/A   Clear
3:56 PM 72.0 °F - 32.0 °F 23% 30.18 in 10.0 mi NNW 5.8 mph - N/A   Clear
4:56 PM 72.0 °F - 30.9 °F 22% 30.18 in 10.0 mi NNE 3.5 mph - N/A   Scattered Clouds
5:56 PM 70.0 °F - 34.0 °F 27% 30.19 in 10.0 mi WNW 4.6 mph - N/A   Mostly Cloudy
6:56 PM 66.9 °F - 39.9 °F 37% 30.20 in 10.0 mi NNW 9.2 mph - N/A   Mostly Cloudy
7:56 PM 64.0 °F - 44.1 °F 48% 30.21 in 10.0 mi NW 6.9 mph - N/A   Mostly Cloudy
8:56 PM 61.0 °F - 44.1 °F 54% 30.22 in 10.0 mi NNW 4.6 mph - N/A   Mostly Cloudy
9:56 PM 55.9 °F - 44.1 °F 64% 30.22 in 10.0 mi South 4.6 mph - N/A   Clear
10:56 PM 52.0 °F - 44.1 °F 74% 30.23 in 10.0 mi SSE 5.8 mph - N/A   Clear
11:56 PM 51.1 °F - 42.1 °F 71% 30.23 in 10.0 mi SSE 4.6 mph - N/A   Clear